Weather in Arciz

Ukraine / Odesa District     45°59′40″N   29°25′55″E
temp.,
°C
wind,
m/s
gust,
m/s
humid.,
%
clouds,
%
prec.,
mm/h
press.,
hPa
HPBL,
m
9 may, sun
sun900:00+7nw511685 0.0 1021322
03:00+6nw410730 0.0 1023227
06:00+5nw48770 0.0 1024176
09:00+11nnw68540 0.0 1026982
12:00+14nnw67395 0.0 10262166
15:00+16nnw463268 0.0 10262750
18:00+16nnw343152 0.0 10252441
21:00+10se465558 0.0 102794
10 may, mon
mon1000:00+8ssw48675 0.0 1028134
03:00+7sw35735 0.0 102769
06:00+7wsw22735 0.0 102712
09:00+13sw11521 0.0 1027358
12:00+17sse21373 0.0 10271882
15:00+19sse32355 0.0 10252144
18:00+16sse66476 0.0 1024588
21:00+11s48631 0.0 1024146
11 may, tue
tue1100:00+9sw35594 0.0 102386
03:00+9w33605 0.0 102230
06:00+8nnw34680 0.0 102156
09:00+14n34562 0.0 1021519
12:00+18n44375 0.0 10191399
15:00+20n4433100 0.0 10181470
18:00+20nnw34385 0.0 10161339
21:00+15nw33578 0.0 101532
12 may, wed
wed1200:00+14nw456777 0.0 101470
03:00+12ene5793100 0.1 1013291
06:00+11ene4790100 0.1 1013456
09:00+11ene5776100 0.3 1013541
12:00+12e4566100 0.0 1013694
15:00+12ese4466100 0.0 1013596
18:00+11ese3471100 0.0 1013285
21:00+9ese357831 0.0 101279
13 may, thu
thu1300:00+8ese347856 0.0 101257
03:00+8e3581100 0.0 101169
06:00+9e3593100 0.0 1010104
09:00+14se6968100 0.0 1010725
12:00+18se8105497 0.0 10091241
15:00+16se6758100 0.1 1009894
18:00+17se55646 0.1 1008742
21:00+12se4691100 0.1 1008118